Land O' Lakes, MI

9:18 PM CDT on April 23, 2017 (GMT -0500)
Kings Land O'Lakes

Weather History for KLNL - February, 2014

Change the Weather History Date:

Wednesday, February 12, 2014

  Actual Average (KEGV) Record (KEGV)
Temperature  
Mean Temperature 12 °F -  
Max Temperature 22 °F 18 °F 42 °F (2005)
Min Temperature 1 °F -4 °F -23 °F (1992)
Degree Days  
Heating Degree Days 54    
Moisture  
Dew Point 4 °F    
Average Humidity 75    
Maximum Humidity 90    
Minimum Humidity 53    
Precipitation  
Precipitation 0.00 in - - ()
Sea Level Pressure  
Sea Level Pressure 29.95 in    
Wind  
Wind Speed 6 mph (SW)    
Max Wind Speed 12 mph    
Max Gust Speed 21 mph    
Visibility 7 miles    
Events Snow    
Averages and records for this station are not official NWS values.
T = Trace of Precipitation, MM = Missing Value Source: NWS Daily Summary

Daily Weather History Graph

Daily Weather History Graph

Search for Another Location

Airport or City:

Trip Planner

Search our weather history database for the weather conditions in past years. The results will help you decide how hot, cold, wet, or windy it might be!

Date:

Astronomy

Feb. 12, 2014 Rise Set
Actual Time 7:04 AM CST 5:18 PM CST
Civil Twilight 6:33 AM CST 5:49 PM CST
Nautical Twilight 5:58 AM CST 6:24 PM CST
Astronomical Twilight 5:23 AM CST 6:59 PM CST
Moon 3:29 PM CST (2/12) 5:24 AM CST (2/12)
Length of Visible Light 11h 16m
Length of Day
10h 14m
Waxing Gibbous, 95% of the Moon is Illuminated
Feb 12
Waxing Gibbous
Feb 14
Full
Feb 22
Last Quarter
Mar 1
New
Mar 8
First Quarter

Hourly Weather History & Observations

Time (CST) Temp. Windchill Dew Point Humidity Pressure Visibility Wind Dir Wind Speed Gust Speed Precip Events Conditions
12:15 AM 9.9 °F -4.0 °F -4.2 °F 53% 30.00 in 10.0 mi South 10.4 mph 20.7 mph N/A   Overcast
12:35 AM 9.9 °F -2.2 °F -2.2 °F 58% 30.00 in 4.0 mi SSW 8.1 mph - N/A Snow Light Snow
12:55 AM 9.5 °F -3.5 °F 1.2 °F 69% 30.00 in 3.0 mi SSW 9.2 mph 18.4 mph N/A Snow Light Snow
1:15 AM 9.3 °F -2.8 °F 3.2 °F 76% 30.01 in 1.8 mi SW 8.1 mph 19.6 mph N/A Snow Light Snow
1:35 AM 9.0 °F -4.2 °F 4.1 °F 81% 30.01 in 1.8 mi SSW 9.2 mph - N/A Snow Light Snow
1:55 AM 9.0 °F -2.2 °F 3.9 °F 80% 30.01 in 2.0 mi SSW 6.9 mph 16.1 mph N/A Snow Light Snow
2:15 AM 8.6 °F -3.7 °F 3.7 °F 81% 30.00 in 3.0 mi SSW 8.1 mph - N/A Snow Light Snow
2:35 AM 8.2 °F -5.1 °F 3.4 °F 81% 30.00 in 2.0 mi SSW 9.2 mph 17.3 mph N/A Snow Light Snow
2:55 AM 8.1 °F -5.3 °F 3.2 °F 81% 30.00 in 2.0 mi SW 9.2 mph - N/A Snow Light Snow
3:15 AM 7.9 °F -7.2 °F 3.2 °F 81% 29.99 in 2.0 mi SW 11.5 mph 17.3 mph N/A Snow Light Snow
3:35 AM 7.9 °F -4.6 °F 3.2 °F 81% 29.99 in 5.0 mi SW 8.1 mph 16.1 mph N/A Snow Light Snow
3:55 AM 7.9 °F -7.2 °F 2.8 °F 80% 29.99 in 7.0 mi SW 11.5 mph 17.3 mph N/A   Overcast
4:15 AM 7.7 °F -3.7 °F 2.3 °F 79% 29.99 in 5.0 mi SW 6.9 mph - N/A Snow Light Snow
4:35 AM 7.5 °F -2.6 °F 2.7 °F 81% 29.99 in 2.5 mi SW 5.8 mph - N/A Snow Light Snow
4:55 AM 7.3 °F -5.2 °F 2.3 °F 80% 29.99 in 7.0 mi SW 8.1 mph - N/A Snow Light Snow
5:15 AM 7.3 °F -2.8 °F 2.3 °F 80% 30.00 in 10.0 mi SW 5.8 mph - N/A Snow Light Snow
5:35 AM 7.3 °F -2.8 °F 2.3 °F 80% 29.99 in 7.0 mi SW 5.8 mph - N/A Snow Light Snow
5:55 AM 7.3 °F -1.3 °F 2.3 °F 80% 29.99 in 7.0 mi SW 4.6 mph - N/A Snow Light Snow
6:15 AM 7.3 °F -4.1 °F 2.3 °F 80% 29.99 in 10.0 mi SW 6.9 mph - N/A Snow Light Snow
6:35 AM 7.3 °F 0.5 °F 2.7 °F 81% 29.99 in 10.0 mi SW 3.5 mph - N/A Snow Light Snow
6:55 AM 7.3 °F -4.1 °F 2.8 °F 82% 30.00 in 7.0 mi SW 6.9 mph - N/A Snow Light Snow
7:15 AM 7.5 °F -1.1 °F 3.2 °F 82% 30.00 in 4.0 mi SW 4.6 mph - N/A Snow Light Snow
7:35 AM 7.5 °F -1.1 °F 3.7 °F 85% 30.00 in 1.8 mi SW 4.6 mph - N/A Snow Light Snow
7:55 AM 7.7 °F -0.9 °F 3.9 °F 85% 29.99 in 1.2 mi SW 4.6 mph - N/A Snow Light Snow
8:15 AM 7.7 °F -2.4 °F 4.1 °F 85% 30.00 in 1.0 mi SW 5.8 mph - N/A Snow Light Snow
8:35 AM 8.2 °F -1.8 °F 4.1 °F 83% 29.99 in 1.2 mi SW 5.8 mph - N/A Snow Light Snow
8:55 AM 8.6 °F -1.3 °F 4.3 °F 83% 30.00 in 1.2 mi SW 5.8 mph - N/A Snow Light Snow
9:15 AM 9.3 °F -0.5 °F 4.6 °F 81% 29.99 in 1.2 mi SW 5.8 mph - N/A Snow Light Snow
9:35 AM 10.4 °F 0.8 °F 5.0 °F 79% 29.99 in 1.8 mi WSW 5.8 mph - N/A Snow Light Snow
9:55 AM 11.7 °F 2.3 °F 5.7 °F 77% 29.99 in 2.5 mi WSW 5.8 mph - N/A Snow Light Snow
10:15 AM 12.6 °F 2.2 °F 6.4 °F 77% 29.98 in 3.0 mi WSW 6.9 mph - N/A Snow Light Snow
10:35 AM 13.1 °F 4.0 °F 6.4 °F 75% 29.98 in 5.0 mi West 5.8 mph - N/A Snow Light Snow
10:55 AM 13.6 °F 3.5 °F 6.8 °F 74% 29.98 in 7.0 mi SW 6.9 mph - N/A Snow Light Snow
11:15 AM 14.2 °F 5.3 °F 6.8 °F 73% 29.98 in 10.0 mi WSW 5.8 mph - N/A Snow Light Snow
11:35 AM 15.3 °F 6.6 °F 7.3 °F 71% 29.97 in 10.0 mi SW 5.8 mph - N/A   Scattered Clouds
11:55 AM 17.1 °F 8.7 °F 7.9 °F 67% 29.97 in 10.0 mi SW 5.8 mph - N/A Snow Light Snow
12:15 PM 18.0 °F 7.7 °F 8.2 °F 66% 29.96 in 10.0 mi West 8.1 mph - N/A   Scattered Clouds
12:35 PM 18.3 °F 9.1 °F 8.2 °F 65% 29.94 in 10.0 mi SW 6.9 mph - N/A   Scattered Clouds
12:55 PM 19.2 °F 9.3 °F 8.4 °F 63% 29.94 in 10.0 mi SW 8.1 mph - N/A   Clear
1:15 PM 19.6 °F 10.6 °F 8.6 °F 62% 29.93 in 10.0 mi SW 6.9 mph - N/A   Clear
1:35 PM 20.8 °F 13.2 °F 8.6 °F 59% 29.92 in 10.0 mi West 5.8 mph - N/A   Clear
1:55 PM 21.0 °F 14.6 °F 8.2 °F 58% 29.91 in 10.0 mi WSW 4.6 mph - N/A   Clear
2:15 PM 21.6 °F 14.0 °F 8.2 °F 57% 29.91 in 10.0 mi West 5.8 mph - N/A   Clear
2:35 PM 22.1 °F 13.7 °F 8.2 °F 55% 29.91 in 10.0 mi SW 6.9 mph - N/A   Clear
2:55 PM 22.1 °F 12.8 °F 8.1 °F 55% 29.90 in 10.0 mi West 8.1 mph - N/A   Clear
3:15 PM 22.3 °F 14.9 °F 8.2 °F 55% 29.91 in 10.0 mi WSW 5.8 mph - N/A   Clear
3:35 PM 22.5 °F 14.1 °F 8.2 °F 54% 29.90 in 10.0 mi WSW 6.9 mph - N/A   Clear
3:55 PM 22.1 °F 15.9 °F 7.9 °F 54% 29.91 in 10.0 mi West 4.6 mph - N/A   Clear
4:15 PM 21.9 °F 15.7 °F 8.2 °F 56% 29.90 in 10.0 mi West 4.6 mph - N/A   Clear
4:35 PM 21.2 °F 16.4 °F 7.9 °F 57% 29.90 in 10.0 mi WSW 3.5 mph - N/A   Clear
4:55 PM 20.3 °F 15.4 °F 7.7 °F 58% 29.89 in 10.0 mi WSW 3.5 mph - N/A   Clear
5:15 PM 19.0 °F - 7.7 °F 61% 29.90 in 10.0 mi Calm Calm - N/A   Clear
5:35 PM 17.2 °F - 7.3 °F 65% 29.90 in 10.0 mi Calm Calm - N/A   Clear
5:55 PM 12.7 °F - 5.4 °F 72% 29.91 in 10.0 mi Calm Calm - N/A   Clear
6:15 PM 10.2 °F - 5.2 °F 80% 29.91 in 10.0 mi Calm Calm - N/A   Clear
6:35 PM 7.3 °F - 3.4 °F 84% 29.91 in 10.0 mi Calm Calm - N/A   Clear
6:55 PM 5.0 °F - 1.9 °F 87% 29.91 in 10.0 mi Calm Calm - N/A   Clear
7:15 PM 4.3 °F - 1.9 °F 90% 29.91 in 10.0 mi Calm Calm - N/A   Clear
7:35 PM 3.9 °F - 1.2 °F 89% 29.91 in 10.0 mi Calm Calm - N/A   Clear
7:55 PM 2.3 °F - -1.1 °F 86% 29.91 in 10.0 mi Calm Calm - N/A   Clear
8:15 PM 2.7 °F - -0.4 °F 87% 29.91 in 10.0 mi Calm Calm - N/A   Clear
8:35 PM 1.6 °F - -1.8 °F 86% 29.90 in 10.0 mi Calm Calm - N/A   Clear
8:55 PM 1.2 °F - -2.4 °F 85% 29.89 in 10.0 mi Calm Calm - N/A   Clear
9:15 PM 1.2 °F - -2.6 °F 84% 29.89 in 10.0 mi Calm Calm - N/A   Scattered Clouds
9:35 PM 2.7 °F - -0.8 °F 86% 29.89 in 10.0 mi Calm Calm - N/A   Mostly Cloudy
9:55 PM 3.9 °F - 0.1 °F 84% 29.89 in 10.0 mi Calm Calm - N/A   Scattered Clouds
10:15 PM 4.1 °F - 0.5 °F 85% 29.89 in 10.0 mi Calm Calm - N/A   Clear
10:35 PM 6.1 °F -2.8 °F 2.8 °F 87% 29.88 in 10.0 mi South 4.6 mph - N/A   Clear
10:55 PM 9.3 °F 2.8 °F 6.4 °F 88% 29.86 in 10.0 mi SSE 3.5 mph - N/A   Clear
11:15 PM 7.5 °F 0.8 °F 4.6 °F 88% 29.85 in 10.0 mi South 3.5 mph - N/A   Clear
11:35 PM 9.0 °F - 5.9 °F 87% 29.84 in 10.0 mi Calm Calm - N/A   Clear
11:55 PM 6.4 °F - 3.2 °F 87% 29.84 in 10.0 mi Calm Calm - N/A   Clear